Time,TemperatureF,DewpointF,PressureIn,WindDirection,WindDirectionDegrees,WindSpeedMPH,WindSpeedGustMPH,Humidity,HourlyPrecipIn,Conditions,Clouds,dailyrainin,SoftwareType,DateUTC
2013-01-22 00:04:00,11.0,6.0,-100.00,West,280,9.0,15.0,80,-99.99,,,-99.99,,2013-01-22 05:04:00,
2013-01-22 00:12:00,11.0,6.0,-100.00,WNW,285,6.0,14.0,80,-99.99,,,-99.99,,2013-01-22 05:12:00,
2013-01-22 00:23:00,11.0,6.0,-100.00,WNW,290,7.0,14.0,79,-99.99,,,-99.99,,2013-01-22 05:23:00,
2013-01-22 00:33:00,11.0,5.0,-100.00,WNW,285,10.0,22.0,79,-99.99,,,-99.99,,2013-01-22 05:33:00,
2013-01-22 00:43:00,11.0,5.0,-100.00,WNW,290,12.0,16.0,78,-99.99,,,-99.99,,2013-01-22 05:43:00,
2013-01-22 00:52:00,11.0,6.0,-100.00,West,270,9.0,16.0,79,-99.99,,,-99.99,,2013-01-22 05:52:00,
2013-01-22 01:02:00,11.0,6.0,-100.00,West,280,9.0,18.0,80,-99.99,,,-99.99,,2013-01-22 06:02:00,
2013-01-22 01:12:00,11.0,6.0,-100.00,West,265,12.0,17.0,81,-99.99,,,-99.99,,2013-01-22 06:12:00,
2013-01-22 01:22:00,11.0,6.0,-100.00,NW,310,8.0,17.0,82,-99.99,,,-99.99,,2013-01-22 06:22:00,
2013-01-22 01:33:00,9.0,6.0,-100.00,NW,320,8.0,17.0,84,-99.99,,,-99.99,,2013-01-22 06:33:00,
2013-01-22 01:42:00,9.0,6.0,-100.00,NW,320,8.0,17.0,84,-99.99,,,-99.99,,2013-01-22 06:42:00,
2013-01-22 01:52:00,9.0,6.0,-100.00,WNW,300,6.0,17.0,87,-99.99,,,-99.99,,2013-01-22 06:52:00,
2013-01-22 02:02:00,9.0,6.0,-100.00,WNW,295,10.0,16.0,88,-99.99,,,-99.99,,2013-01-22 07:02:00,
2013-01-22 02:12:00,9.0,6.0,-100.00,WNW,290,6.0,16.0,89,-99.99,,,-99.99,,2013-01-22 07:12:00,
2013-01-22 02:22:00,8.0,6.0,-100.00,NW,325,6.0,19.0,89,-99.99,,,-99.99,,2013-01-22 07:22:00,
2013-01-22 02:33:00,8.0,5.0,-100.00,WNW,300,7.0,12.0,88,-99.99,,,-99.99,,2013-01-22 07:33:00,
2013-01-22 02:42:00,7.0,4.0,-100.00,NNW,330,8.0,14.0,88,-99.99,,,-99.99,,2013-01-22 07:42:00,
2013-01-22 02:52:00,6.0,3.0,-100.00,North,0,6.0,10.0,87,-99.99,,,-99.99,,2013-01-22 07:52:00,
2013-01-22 03:02:00,6.0,3.0,-100.00,NNW,335,5.0,7.0,87,-99.99,,,-99.99,,2013-01-22 08:02:00,
2013-01-22 03:12:00,6.0,3.0,-100.00,North,350,5.0,9.0,88,-99.99,,,-99.99,,2013-01-22 08:12:00,
2013-01-22 03:22:00,6.0,3.0,-100.00,NNW,330,4.0,9.0,88,-99.99,,,-99.99,,2013-01-22 08:22:00,
2013-01-22 03:32:00,6.0,3.0,-100.00,NNW,335,3.0,7.0,88,-99.99,,,-99.99,,2013-01-22 08:32:00,
2013-01-22 03:42:00,5.0,3.0,-100.00,NW,315,6.0,10.0,88,-99.99,,,-99.99,,2013-01-22 08:42:00,
2013-01-22 03:52:00,5.0,3.0,-100.00,NW,305,4.0,7.0,88,-99.99,,,-99.99,,2013-01-22 08:52:00,
2013-01-22 04:02:00,5.0,3.0,-100.00,NW,320,4.0,7.0,88,-99.99,,,-99.99,,2013-01-22 09:02:00,
2013-01-22 04:12:00,5.0,2.0,-100.00,NNW,330,4.0,7.0,89,-99.99,,,-99.99,,2013-01-22 09:12:00,
2013-01-22 04:22:00,5.0,2.0,-100.00,NNW,340,4.0,8.0,89,-99.99,,,-99.99,,2013-01-22 09:22:00,
2013-01-22 04:32:00,5.0,3.0,-100.00,NW,315,4.0,7.0,89,-99.99,,,-99.99,,2013-01-22 09:32:00,
2013-01-22 04:42:00,5.0,2.0,-100.00,NNW,330,5.0,7.0,89,-99.99,,,-99.99,,2013-01-22 09:42:00,
2013-01-22 04:52:00,5.0,2.0,-100.00,NNW,330,4.0,10.0,89,-99.99,,,-99.99,,2013-01-22 09:52:00,
2013-01-22 05:03:00,5.0,2.0,-100.00,NNW,335,5.0,9.0,89,-99.99,,,-99.99,,2013-01-22 10:03:00,
2013-01-22 05:12:00,5.0,2.0,-100.00,NW,320,4.0,7.0,88,-99.99,,,-99.99,,2013-01-22 10:12:00,
2013-01-22 05:22:00,4.0,2.0,-100.00,NNW,330,4.0,9.0,88,-99.99,,,-99.99,,2013-01-22 10:22:00,
2013-01-22 05:32:00,4.0,2.0,-100.00,WNW,300,3.0,6.0,88,-99.99,,,-99.99,,2013-01-22 10:32:00,
2013-01-22 05:42:00,4.0,2.0,-100.00,NNW,335,5.0,10.0,88,-99.99,,,-99.99,,2013-01-22 10:42:00,
2013-01-22 05:52:00,4.0,1.0,-100.00,NW,320,6.0,9.0,87,-99.99,,,-99.99,,2013-01-22 10:52:00,
2013-01-22 06:02:00,4.0,1.0,-100.00,NW,310,3.0,8.0,87,-99.99,,,-99.99,,2013-01-22 11:02:00,
2013-01-22 06:12:00,4.0,1.0,-100.00,NW,310,3.0,8.0,87,-99.99,,,-99.99,,2013-01-22 11:12:00,
2013-01-22 06:22:00,4.0,1.0,-100.00,NNW,330,5.0,9.0,87,-99.99,,,-99.99,,2013-01-22 11:22:00,
2013-01-22 06:33:00,3.0,0.0,-100.00,NNW,330,7.0,10.0,87,-99.99,,,-99.99,,2013-01-22 11:33:00,
2013-01-22 06:43:00,3.0,0.0,-100.00,NNW,340,5.0,9.0,87,-99.99,,,-99.99,,2013-01-22 11:43:00,
2013-01-22 06:53:00,3.0,0.0,-100.00,NNW,345,7.0,11.0,87,-99.99,,,-99.99,,2013-01-22 11:53:00,
2013-01-22 07:04:00,3.0,0.0,-100.00,NNW,335,6.0,12.0,87,-99.99,,,-99.99,,2013-01-22 12:04:00,
2013-01-22 07:13:00,3.0,0.0,-100.00,NNW,335,7.0,10.0,87,-99.99,,,-99.99,,2013-01-22 12:13:00,
2013-01-22 07:23:00,2.0,0.0,-100.00,NW,320,4.0,11.0,87,-99.99,,,-99.99,,2013-01-22 12:23:00,
2013-01-22 07:33:00,2.0,-1.0,-100.00,WNW,300,4.0,10.0,86,-99.99,,,-99.99,,2013-01-22 12:33:00,
2013-01-22 07:43:00,2.0,-1.0,-100.00,WNW,290,4.0,7.0,86,-99.99,,,-99.99,,2013-01-22 12:43:00,
2013-01-22 07:52:00,2.0,-1.0,-100.00,WNW,300,5.0,10.0,86,-99.99,,,-99.99,,2013-01-22 12:52:00,
2013-01-22 08:04:00,2.0,-1.0,-100.00,NW,310,4.0,7.0,86,-99.99,,,-99.99,,2013-01-22 13:04:00,
2013-01-22 08:13:00,3.0,-1.0,-100.00,WNW,300,2.0,8.0,85,-99.99,,,-99.99,,2013-01-22 13:13:00,
2013-01-22 08:23:00,3.0,-1.0,-100.00,WNW,300,4.0,7.0,85,-99.99,,,-99.99,,2013-01-22 13:23:00,
2013-01-22 08:33:00,3.0,-1.0,-100.00,NW,315,6.0,8.0,84,-99.99,,,-99.99,,2013-01-22 13:33:00,
2013-01-22 08:43:00,3.0,-1.0,-100.00,WNW,285,4.0,9.0,83,-99.99,,,-99.99,,2013-01-22 13:43:00,
2013-01-22 08:53:00,3.0,-1.0,-100.00,West,275,6.0,9.0,82,-99.99,,,-99.99,,2013-01-22 13:53:00,
2013-01-22 09:03:00,3.0,-1.0,-100.00,WNW,285,6.0,10.0,81,-99.99,,,-99.99,,2013-01-22 14:03:00,
2013-01-22 09:13:00,3.0,-1.0,-100.00,WNW,290,6.0,11.0,81,-99.99,,,-99.99,,2013-01-22 14:13:00,
2013-01-22 09:23:00,4.0,-1.0,-100.00,WNW,295,4.0,10.0,80,-99.99,,,-99.99,,2013-01-22 14:23:00,
2013-01-22 09:34:00,4.0,-1.0,-100.00,WNW,290,6.0,10.0,80,-99.99,,,-99.99,,2013-01-22 14:34:00,
2013-01-22 09:44:00,4.0,-1.0,-100.00,WNW,295,4.0,11.0,79,-99.99,,,-99.99,,2013-01-22 14:44:00,
2013-01-22 09:53:00,4.0,-1.0,-100.00,NNW,345,6.0,11.0,79,-99.99,,,-99.99,,2013-01-22 14:53:00,
2013-01-22 10:04:00,4.0,-1.0,-100.00,NW,320,6.0,9.0,78,-99.99,,,-99.99,,2013-01-22 15:04:00,
2013-01-22 10:13:00,4.0,-1.0,-100.00,WNW,290,6.0,12.0,77,-99.99,,,-99.99,,2013-01-22 15:13:00,
2013-01-22 10:23:00,5.0,0.0,-100.00,WNW,295,2.0,10.0,78,-99.99,,,-99.99,,2013-01-22 15:23:00,
2013-01-22 10:34:00,5.0,0.0,-100.00,NW,310,6.0,9.0,79,-99.99,,,-99.99,,2013-01-22 15:34:00,
2013-01-22 10:43:00,5.0,0.0,-100.00,NNW,345,4.0,9.0,79,-99.99,,,-99.99,,2013-01-22 15:43:00,
2013-01-22 10:52:00,6.0,1.0,-100.00,West,270,4.0,10.0,79,-99.99,,,-99.99,,2013-01-22 15:52:00,
2013-01-22 11:04:00,6.0,1.0,-100.00,NW,315,6.0,10.0,79,-99.99,,,-99.99,,2013-01-22 16:04:00,
2013-01-22 11:13:00,6.0,1.0,-100.00,WNW,285,7.0,10.0,80,-99.99,,,-99.99,,2013-01-22 16:13:00,
2013-01-22 11:23:00,6.0,2.0,-100.00,WNW,300,7.0,9.0,79,-99.99,,,-99.99,,2013-01-22 16:23:00,
2013-01-22 11:33:00,6.0,2.0,-100.00,WNW,300,4.0,9.0,80,-99.99,,,-99.99,,2013-01-22 16:33:00,
2013-01-22 11:43:00,7.0,2.0,-100.00,WNW,290,4.0,7.0,80,-99.99,,,-99.99,,2013-01-22 16:43:00,
2013-01-22 11:53:00,8.0,3.0,-100.00,WSW,245,5.0,7.0,79,-99.99,,,-99.99,,2013-01-22 16:53:00,
2013-01-22 12:04:00,8.0,3.0,-100.00,WSW,240,4.0,9.0,79,-99.99,,,-99.99,,2013-01-22 17:04:00,
2013-01-22 12:13:00,8.0,4.0,-100.00,WSW,240,4.0,6.0,79,-99.99,,,-99.99,,2013-01-22 17:13:00,
2013-01-22 12:23:00,8.0,3.0,-100.00,West,270,6.0,11.0,79,-99.99,,,-99.99,,2013-01-22 17:23:00,
2013-01-22 12:34:00,9.0,4.0,-100.00,NW,305,4.0,10.0,78,-99.99,,,-99.99,,2013-01-22 17:34:00,
2013-01-22 12:43:00,9.0,4.0,-100.00,NW,310,9.0,14.0,78,-99.99,,,-99.99,,2013-01-22 17:43:00,
2013-01-22 12:53:00,9.0,4.0,-100.00,West,280,8.0,14.0,77,-99.99,,,-99.99,,2013-01-22 17:53:00,
2013-01-22 13:04:00,9.0,4.0,-100.00,SW,235,7.0,12.0,77,-99.99,,,-99.99,,2013-01-22 18:04:00,
2013-01-22 13:13:00,9.0,3.0,-100.00,WSW,250,6.0,12.0,77,-99.99,,,-99.99,,2013-01-22 18:13:00,
2013-01-22 13:23:00,9.0,3.0,-100.00,West,280,10.0,15.0,77,-99.99,,,-99.99,,2013-01-22 18:23:00,
2013-01-22 13:34:00,9.0,4.0,-100.00,WNW,295,9.0,16.0,78,-99.99,,,-99.99,,2013-01-22 18:34:00,
2013-01-22 13:43:00,9.0,5.0,-100.00,WNW,290,6.0,12.0,80,-99.99,,,-99.99,,2013-01-22 18:43:00,
2013-01-22 13:53:00,10.0,5.0,-100.00,WNW,295,7.0,16.0,79,-99.99,,,-99.99,,2013-01-22 18:53:00,
2013-01-22 14:04:00,10.0,5.0,-100.00,WSW,240,4.0,15.0,78,-99.99,,,-99.99,,2013-01-22 19:04:00,
2013-01-22 14:13:00,10.0,5.0,-100.00,West,260,7.0,13.0,79,-99.99,,,-99.99,,2013-01-22 19:13:00,
2013-01-22 14:23:00,10.0,5.0,-100.00,WNW,295,7.0,12.0,79,-99.99,,,-99.99,,2013-01-22 19:23:00,
2013-01-22 14:34:00,11.0,6.0,-100.00,WNW,285,7.0,11.0,80,-99.99,,,-99.99,,2013-01-22 19:34:00,
2013-01-22 14:43:00,11.0,6.0,-100.00,WSW,255,6.0,10.0,81,-99.99,,,-99.99,,2013-01-22 19:43:00,
2013-01-22 14:53:00,11.0,7.0,-100.00,West,260,7.0,16.0,81,-99.99,,,-99.99,,2013-01-22 19:53:00,
2013-01-22 15:03:00,11.0,6.0,-100.00,West,265,9.0,16.0,81,-99.99,,,-99.99,,2013-01-22 20:03:00,
2013-01-22 15:13:00,11.0,7.0,-100.00,West,280,7.0,13.0,83,-99.99,,,-99.99,,2013-01-22 20:13:00,
2013-01-22 15:23:00,11.0,7.0,-100.00,West,280,9.0,21.0,82,-99.99,,,-99.99,,2013-01-22 20:23:00,
2013-01-22 15:33:00,11.0,7.0,-100.00,West,275,7.0,13.0,82,-99.99,,,-99.99,,2013-01-22 20:33:00,
2013-01-22 15:43:00,11.0,7.0,-100.00,WNW,285,7.0,11.0,84,-99.99,,,-99.99,,2013-01-22 20:43:00,
2013-01-22 15:53:00,11.0,7.0,-100.00,West,260,7.0,14.0,84,-99.99,,,-99.99,,2013-01-22 20:53:00,
2013-01-22 16:04:00,11.0,7.0,-100.00,West,275,6.0,13.0,84,-99.99,,,-99.99,,2013-01-22 21:04:00,
2013-01-22 16:13:00,11.0,8.0,-100.00,West,275,7.0,12.0,84,-99.99,,,-99.99,,2013-01-22 21:13:00,
2013-01-22 16:23:00,12.0,8.0,-100.00,West,280,7.0,12.0,82,-99.99,,,-99.99,,2013-01-22 21:23:00,
2013-01-22 16:34:00,11.0,6.0,-100.00,West,280,7.0,19.0,81,-99.99,,,-99.99,,2013-01-22 21:34:00,
2013-01-22 16:43:00,12.0,7.0,-100.00,West,280,9.0,18.0,79,-99.99,,,-99.99,,2013-01-22 21:43:00,
2013-01-22 16:53:00,11.0,5.0,-100.00,SW,235,11.0,17.0,76,-99.99,,,-99.99,,2013-01-22 21:53:00,
2013-01-22 17:03:00,11.0,5.0,-100.00,WSW,250,12.0,19.0,75,-99.99,,,-99.99,,2013-01-22 22:03:00,
2013-01-22 17:13:00,12.0,5.0,-100.00,WSW,250,10.0,16.0,75,-99.99,,,-99.99,,2013-01-22 22:13:00,
2013-01-22 17:23:00,11.0,4.0,-100.00,WSW,250,9.0,19.0,73,-99.99,,,-99.99,,2013-01-22 22:23:00,
2013-01-22 17:33:00,11.0,4.0,-100.00,West,270,11.0,20.0,72,-99.99,,,-99.99,,2013-01-22 22:33:00,
2013-01-22 17:43:00,11.0,4.0,-100.00,West,280,7.0,21.0,73,-99.99,,,-99.99,,2013-01-22 22:43:00,
2013-01-22 17:53:00,10.0,4.0,-100.00,WSW,255,6.0,17.0,73,-99.99,,,-99.99,,2013-01-22 22:53:00,
2013-01-22 18:03:00,10.0,4.0,-100.00,WSW,255,9.0,14.0,73,-99.99,,,-99.99,,2013-01-22 23:03:00,
2013-01-22 18:12:00,10.0,4.0,-100.00,WSW,250,9.0,16.0,73,-99.99,,,-99.99,,2013-01-22 23:12:00,
2013-01-22 18:24:00,10.0,4.0,-100.00,West,260,9.0,20.0,73,-99.99,,,-99.99,,2013-01-22 23:24:00,
2013-01-22 18:33:00,10.0,4.0,-100.00,West,260,9.0,20.0,73,-99.99,,,-99.99,,2013-01-22 23:33:00,
2013-01-22 18:43:00,10.0,3.0,-100.00,West,265,6.0,20.0,73,-99.99,,,-99.99,,2013-01-22 23:43:00,
2013-01-22 18:53:00,10.0,3.0,-100.00,West,270,8.0,12.0,73,-99.99,,,-99.99,,2013-01-22 23:53:00,
2013-01-22 19:03:00,9.0,3.0,-100.00,WSW,250,7.0,15.0,73,-99.99,,,-99.99,,2013-01-23 00:03:00,
2013-01-22 19:13:00,9.0,3.0,-100.00,West,280,6.0,15.0,73,-99.99,,,-99.99,,2013-01-23 00:13:00,
2013-01-22 19:23:00,9.0,3.0,-100.00,West,275,7.0,11.0,73,-99.99,,,-99.99,,2013-01-23 00:23:00,
2013-01-22 19:33:00,9.0,3.0,-100.00,West,280,8.0,14.0,74,-99.99,,,-99.99,,2013-01-23 00:33:00,
2013-01-22 19:43:00,9.0,3.0,-100.00,West,280,8.0,12.0,74,-99.99,,,-99.99,,2013-01-23 00:43:00,
2013-01-22 19:52:00,9.0,3.0,-100.00,WNW,295,7.0,14.0,74,-99.99,,,-99.99,,2013-01-23 00:52:00,
2013-01-22 20:03:00,9.0,3.0,-100.00,West,260,7.0,13.0,74,-99.99,,,-99.99,,2013-01-23 01:03:00,
2013-01-22 20:13:00,9.0,3.0,-100.00,WNW,290,6.0,15.0,73,-99.99,,,-99.99,,2013-01-23 01:13:00,
2013-01-22 20:23:00,9.0,2.0,-100.00,WNW,285,9.0,14.0,73,-99.99,,,-99.99,,2013-01-23 01:23:00,
2013-01-22 20:33:00,9.0,2.0,-100.00,West,270,11.0,15.0,73,-99.99,,,-99.99,,2013-01-23 01:33:00,
2013-01-22 20:43:00,9.0,2.0,-100.00,West,280,6.0,16.0,73,-99.99,,,-99.99,,2013-01-23 01:43:00,
2013-01-22 20:52:00,9.0,2.0,-100.00,WNW,290,9.0,15.0,73,-99.99,,,-99.99,,2013-01-23 01:52:00,
2013-01-22 21:03:00,9.0,2.0,-100.00,WNW,295,7.0,13.0,73,-99.99,,,-99.99,,2013-01-23 02:03:00,
2013-01-22 21:13:00,9.0,2.0,-100.00,West,280,6.0,11.0,73,-99.99,,,-99.99,,2013-01-23 02:13:00,
2013-01-22 21:23:00,9.0,2.0,-100.00,WNW,290,6.0,11.0,73,-99.99,,,-99.99,,2013-01-23 02:23:00,
2013-01-22 21:33:00,9.0,2.0,-100.00,WNW,295,6.0,11.0,73,-99.99,,,-99.99,,2013-01-23 02:33:00,
2013-01-22 21:43:00,8.0,2.0,-100.00,West,280,6.0,9.0,73,-99.99,,,-99.99,,2013-01-23 02:43:00,
2013-01-22 21:53:00,8.0,2.0,-100.00,West,280,4.0,9.0,73,-99.99,,,-99.99,,2013-01-23 02:53:00,
2013-01-22 22:03:00,8.0,2.0,-100.00,West,280,4.0,7.0,73,-99.99,,,-99.99,,2013-01-23 03:03:00,
2013-01-22 22:13:00,8.0,2.0,-100.00,WSW,240,4.0,9.0,74,-99.99,,,-99.99,,2013-01-23 03:13:00,
2013-01-22 22:23:00,8.0,1.0,-100.00,West,270,4.0,7.0,74,-99.99,,,-99.99,,2013-01-23 03:23:00,
2013-01-22 22:33:00,8.0,1.0,-100.00,West,265,4.0,7.0,74,-99.99,,,-99.99,,2013-01-23 03:33:00,
2013-01-22 22:43:00,8.0,1.0,-100.00,West,270,4.0,6.0,75,-99.99,,,-99.99,,2013-01-23 03:43:00,
2013-01-22 22:53:00,8.0,1.0,-100.00,West,280,4.0,9.0,75,-99.99,,,-99.99,,2013-01-23 03:53:00,
2013-01-22 23:03:00,7.0,1.0,-100.00,West,280,4.0,7.0,75,-99.99,,,-99.99,,2013-01-23 04:03:00,
2013-01-22 23:12:00,7.0,1.0,-100.00,West,270,3.0,7.0,75,-99.99,,,-99.99,,2013-01-23 04:12:00,
2013-01-22 23:23:00,7.0,1.0,-100.00,West,265,6.0,11.0,75,-99.99,,,-99.99,,2013-01-23 04:23:00,
2013-01-22 23:33:00,7.0,1.0,-100.00,West,270,4.0,9.0,75,-99.99,,,-99.99,,2013-01-23 04:33:00,
2013-01-22 23:43:00,7.0,1.0,-100.00,West,270,4.0,9.0,75,-99.99,,,-99.99,,2013-01-23 04:43:00,
2013-01-22 23:52:00,7.0,1.0,-100.00,West,260,4.0,9.0,75,-99.99,,,-99.99,,2013-01-23 04:52:00,